{"data":{"norad_id":63054,"intl_designator":"2025-035C","name":"STARLINK-11347 [DTC]","alt_names":[],"object_type":"PAYLOAD","status":"ACTIVE","operator":null,"country":"US","launch_date":"2025-02-21","launch_site_code":"AFETR","launch_vehicle":null,"mission":null,"orbit_class":"UNKNOWN","rcs_meters":null,"size_class":null,"mass_kg":null,"dimensions":null,"purposes":["comms"],"wikipedia_slug":null,"has_3d_model":false,"image_url":null,"decayed_at":null,"tle_current":{"epoch":"2026-09-21T07:28:01.644096Z","epoch_age_seconds":95363,"freshness":"FRESH","line1":"1 63054U 25035C   26264.31113014 -.00021955  00000+0 -16827-3 0  9997","line2":"2 63054  42.9996 276.5055 0001297 245.8891 114.1841 15.70809939 91983","mean_motion":15.70809939,"eccentricity":0.0001297,"inclination_deg":42.9996,"raan_deg":276.5055,"arg_perigee_deg":245.8891,"mean_anomaly_deg":114.1841,"bstar":-0.00016827,"rev_number":9198,"period_min":91.67245280589,"perigee_km":355.70748998042,"apogee_km":357.45447582518,"semimajor_km":6734.7179829028,"source":"CELESTRAK","updated_at":"2026-09-22T09:00:49.749699Z"}}}